Weather History for Bentonville, AR

Change the Weather History Date:

Tuesday, June 11, 2013

  Actual Average Record
Temperature  
Mean Temperature 80 °F -  
Max Temperature 91 °F 81 °F 100 °F (1953)
Min Temperature 69 °F 61 °F 45 °F (1988)
Cooling Degree Days 15    
Growing Degree Days 30 (Base 50)    
Moisture  
Dew Point 65 °F    
Average Humidity 59    
Maximum Humidity 78    
Minimum Humidity 38    
Precipitation  
Precipitation 0.00 in - - ()
Sea Level Pressure  
Sea Level Pressure 29.97 in    
Wind  
Wind Speed 7 mph (SSW)    
Max Wind Speed 17 mph    
Max Gust Speed 23 mph    
Visibility 10 miles    
Events      
Averages and records for this station are not official NWS values.
T = Trace of Precipitation, MM = Missing Value Source: NWS Daily Summary

Daily Weather History Graph

Daily Weather History Graph

Search for Another Location

Airport:

Trip Planner

Search our weather history database for the weather conditions in past years. The results will help you decide how hot, cold, wet, or windy it might be!

Date:

Astronomy

Jun. 11, 2013 Rise Set
Actual Time 5:58 AM CDT 8:34 PM CDT
Civil Twilight 5:28 AM CDT 9:05 PM CDT
Nautical Twilight 4:50 AM CDT 9:42 PM CDT
Astronomical Twilight 4:08 AM CDT 10:24 PM CDT
Moon 8:39 AM CDT (6/11) 10:42 PM CDT (6/11)
Length of Visible Light 15h 36m
Length of Day
14h 36m
Waxing Crescent, 8% of the Moon is Illuminated
Jun 11
Waxing Crescent
Jun 16
First Quarter
Jun 23
Full
Jun 29
Last Quarter
Jul 8
New

Hourly Weather History & Observations

Time (CDT) Temp. Heat Index Dew Point Humidity Pressure Visibility Wind Dir Wind Speed Gust Speed Precip Events Conditions
12:15 AM 73.4 °F - 64.4 °F 73% 29.93 in 10.0 mi South 4.6 mph - N/A   Clear
12:35 AM 73.4 °F - 64.4 °F 73% 29.93 in 10.0 mi South 5.8 mph - N/A   Clear
12:55 AM 73.4 °F - 64.4 °F 73% 29.94 in 10.0 mi South 4.6 mph - N/A   Clear
1:16 AM 73.4 °F - 64.4 °F 73% 29.94 in 10.0 mi South 4.6 mph - N/A   Clear
1:35 AM 73.4 °F - 64.4 °F 73% 29.94 in 10.0 mi South 5.8 mph - N/A   Clear
1:55 AM 73.4 °F - 64.4 °F 73% 29.94 in 10.0 mi South 6.9 mph - N/A   Clear
2:15 AM 73.4 °F - 64.4 °F 73% 29.94 in 10.0 mi South 4.6 mph - N/A   Clear
2:35 AM 73.4 °F - 64.4 °F 73% 29.94 in 10.0 mi SSW 5.8 mph - N/A   Clear
2:55 AM 73.4 °F - 64.4 °F 73% 29.94 in 10.0 mi South 5.8 mph - N/A   Clear
3:16 AM 73.4 °F - 64.4 °F 73% 29.93 in 10.0 mi South 5.8 mph - N/A   Clear
3:35 AM 71.6 °F - 64.4 °F 78% 29.94 in 10.0 mi South 4.6 mph - N/A   Clear
3:55 AM 73.4 °F - 64.4 °F 73% 29.93 in 10.0 mi South 5.8 mph - N/A   Clear
4:15 AM 73.4 °F - 64.4 °F 73% 29.94 in 10.0 mi South 5.8 mph - N/A   Clear
4:36 AM 71.6 °F - 64.4 °F 78% 29.94 in 10.0 mi South 4.6 mph - N/A   Clear
4:55 AM 71.6 °F - 64.4 °F 78% 29.94 in 10.0 mi South 5.8 mph - N/A   Clear
5:35 AM 71.6 °F - 64.4 °F 78% 29.96 in 10.0 mi South 4.6 mph - N/A   Clear
5:55 AM 69.8 °F - 62.6 °F 78% 29.97 in 10.0 mi South 4.6 mph - N/A   Clear
6:15 AM 71.6 °F - 64.4 °F 78% 29.97 in 10.0 mi South 5.8 mph - N/A   Clear
6:35 AM 71.6 °F - 64.4 °F 78% 29.98 in 10.0 mi South 5.8 mph - N/A   Clear
6:55 AM 73.4 °F - 64.4 °F 73% 29.98 in 10.0 mi South 6.9 mph - N/A   Clear
7:15 AM 75.2 °F - 64.4 °F 69% 29.99 in 10.0 mi South 6.9 mph - N/A   Clear
7:35 AM 75.2 °F - 64.4 °F 69% 29.99 in 10.0 mi SSW 6.9 mph - N/A   Clear
7:55 AM 77.0 °F - 64.4 °F 65% 30.00 in 10.0 mi SSW 4.6 mph - N/A   Clear
8:16 AM 78.8 °F - 66.2 °F 65% 30.01 in 10.0 mi SSW 8.1 mph - N/A   Clear
8:35 AM 78.8 °F - 66.2 °F 65% 30.02 in 10.0 mi SW 9.2 mph - N/A   Clear
8:55 AM 80.6 °F 82.7 °F 66.2 °F 61% 30.02 in 10.0 mi SSW 9.2 mph 17.3 mph N/A   Clear
9:15 AM 80.6 °F 82.7 °F 66.2 °F 61% 30.02 in 10.0 mi SW 9.2 mph - N/A   Clear
9:35 AM 82.4 °F 84.6 °F 66.2 °F 58% 30.02 in 10.0 mi SW 11.5 mph - N/A   Clear
9:55 AM 82.4 °F 84.6 °F 66.2 °F 58% 30.02 in 10.0 mi SW 11.5 mph - N/A   Clear
10:15 AM 84.2 °F 87.3 °F 68.0 °F 58% 30.02 in 10.0 mi SW 10.4 mph 16.1 mph N/A   Clear
10:36 AM 84.2 °F 86.6 °F 66.2 °F 55% 30.02 in 10.0 mi SW 12.7 mph - N/A   Clear
10:55 AM 86.0 °F 88.2 °F 66.2 °F 51% 30.02 in 10.0 mi SSW 13.8 mph - N/A   Clear
11:15 AM 86.0 °F 88.2 °F 66.2 °F 51% 30.03 in 10.0 mi SSW 11.5 mph 16.1 mph N/A   Clear
11:35 AM 87.8 °F 91.4 °F 68.0 °F 52% 30.03 in 10.0 mi SSW 9.2 mph - N/A   Clear
12:15 PM 87.8 °F 90.4 °F 66.2 °F 49% 30.02 in 10.0 mi SSW 10.4 mph - N/A   Clear
12:35 PM 89.6 °F 91.1 °F 64.4 °F 43% 30.02 in 10.0 mi SW 10.4 mph 17.3 mph N/A   Clear
12:56 PM 89.6 °F 91.1 °F 64.4 °F 43% 30.03 in 10.0 mi SSW 9.2 mph - N/A   Clear
1:15 PM 89.6 °F 90.1 °F 62.6 °F 40% 30.02 in 10.0 mi SSW 12.7 mph 18.4 mph N/A   Clear
1:35 PM 89.6 °F 91.1 °F 64.4 °F 43% 30.02 in 10.0 mi SW 11.5 mph 16.1 mph N/A   Clear
1:55 PM 91.4 °F 93.2 °F 64.4 °F 41% 30.01 in 10.0 mi SSW 11.5 mph 16.1 mph N/A   Clear
2:15 PM 91.4 °F 92.1 °F 62.6 °F 38% 30.01 in 10.0 mi SSW 12.7 mph 21.9 mph N/A   Clear
2:35 PM 91.4 °F 93.2 °F 64.4 °F 41% 30.00 in 10.0 mi SSW 11.5 mph 21.9 mph N/A   Clear
2:55 PM 91.4 °F 93.2 °F 64.4 °F 41% 29.99 in 10.0 mi SW 13.8 mph - N/A   Clear
3:16 PM 91.4 °F 93.2 °F 64.4 °F 41% 29.99 in 10.0 mi SSW 11.5 mph 19.6 mph N/A   Clear
3:35 PM 91.4 °F 93.2 °F 64.4 °F 41% 29.98 in 10.0 mi SSW 16.1 mph 21.9 mph N/A   Clear
3:55 PM 91.4 °F 93.2 °F 64.4 °F 41% 29.98 in 10.0 mi SW 17.3 mph 23.0 mph N/A   Clear
4:15 PM 91.4 °F 93.2 °F 64.4 °F 41% 29.97 in 10.0 mi SW 15.0 mph 20.7 mph N/A   Clear
4:35 PM 91.4 °F 94.0 °F 66.2 °F 43% 29.96 in 10.0 mi SSW 11.5 mph 18.4 mph N/A   Clear
4:55 PM 91.4 °F 94.0 °F 66.2 °F 43% 29.96 in 10.0 mi SSW 8.1 mph 18.4 mph N/A   Clear
5:15 PM 91.4 °F 94.0 °F 66.2 °F 43% 29.96 in 10.0 mi SW 11.5 mph - N/A   Clear
5:36 PM 91.4 °F 94.0 °F 66.2 °F 43% 29.96 in 10.0 mi SSW 11.5 mph - N/A   Clear
5:55 PM 89.6 °F 92.2 °F 66.2 °F 46% 29.95 in 10.0 mi South 10.4 mph - N/A   Clear
6:15 PM 89.6 °F 91.1 °F 64.4 °F 43% 29.95 in 10.0 mi SSW 12.7 mph 19.6 mph N/A   Clear
6:35 PM 89.6 °F 92.2 °F 66.2 °F 46% 29.94 in 10.0 mi SSW 10.4 mph 17.3 mph N/A   Clear
6:55 PM 89.6 °F 92.2 °F 66.2 °F 46% 29.94 in 10.0 mi SSW 8.1 mph - N/A   Clear
7:15 PM 87.8 °F 90.4 °F 66.2 °F 49% 29.94 in 10.0 mi South 8.1 mph - N/A   Clear
7:35 PM 87.8 °F 90.4 °F 66.2 °F 49% 29.94 in 10.0 mi SSW 6.9 mph - N/A   Clear
7:56 PM 86.0 °F 88.2 °F 66.2 °F 51% 29.94 in 10.0 mi South 5.8 mph - N/A   Clear
8:15 PM 84.2 °F 86.6 °F 66.2 °F 55% 29.94 in 10.0 mi South 5.8 mph - N/A   Clear
8:35 PM 82.4 °F 84.6 °F 66.2 °F 58% 29.94 in 10.0 mi South 4.6 mph - N/A   Clear
8:55 PM 82.4 °F 84.6 °F 66.2 °F 58% 29.94 in 10.0 mi South 5.8 mph - N/A   Clear
9:15 PM 80.6 °F 82.7 °F 66.2 °F 61% 29.95 in 10.0 mi South 6.9 mph - N/A   Clear
9:55 PM 80.6 °F 82.7 °F 66.2 °F 61% 29.96 in 10.0 mi South 5.8 mph - N/A   Clear
10:15 PM 80.6 °F 82.7 °F 66.2 °F 61% 29.97 in 10.0 mi South 8.1 mph - N/A   Clear
10:35 PM 80.6 °F 82.7 °F 66.2 °F 61% 29.98 in 10.0 mi South 9.2 mph - N/A   Clear
10:55 PM 78.8 °F - 68.0 °F 69% 29.98 in 10.0 mi South 8.1 mph - N/A   Clear
11:15 PM 78.8 °F - 68.0 °F 69% 29.98 in 10.0 mi South 8.1 mph - N/A   Clear
11:36 PM 78.8 °F - 68.0 °F 69% 29.98 in 10.0 mi South 8.1 mph - N/A   Clear
11:55 PM 78.8 °F - 68.0 °F 69% 29.98 in 10.0 mi South 6.9 mph - N/A   Clear